Terug naar catalogus

STARLINK-3740

ActiefCommunicatieVLEO
NORAD 52265·PAYLOAD·🇺🇸 United States

Gelanceerd Apr 21, 2022 vanaf Cape Canaveral Space Force Station

Loading…

Volgende Passages (komende 24 uur)

TLE

VersSource: CelesTrak SupGP

Epoch: Sep 15, 2026, 01:49 UTC

1 52265C 22041E   26258.07618056  .00044671  00000+0  13200-2 0  2582
2 52265  53.1586 325.1852 0001094  73.9683 131.4512 15.34364382    13

Volg STARLINK-3740 in realtime met AllMySat

Download on the App Store